Terminal Aerodrome Forecast
Issued by NWS

Home | Current Version | Previous Version | Graphics & Text | Print | Product List | Glossary On
Versions: 1 2 3 4 5 6 7 8 9 10 11 12 13 14 15 16 17 18 19
000
FTUS43 KABR 221100 AAA
TAFPIR
TAF AMD
KPIR 221104Z 2211/2306 21008KT P6SM SCT250
      TEMPO 2211/2214 3/4SM BR VV001=

USA.gov is the U.S. government's official web portal to all federal, state and local government web resources and services.